Juneau, AK

3:55 PM AKDT on September 21, 2017 (GMT -0800)
Juneau International

Weather History for PAJN - January, 2013

Change the Weather History Date:

Tuesday, January 1, 2013

  Actual Average Record
Temperature  
Mean Temperature 39 °F 29 °F  
Max Temperature 43 °F 33 °F 45 °F (1962)
Min Temperature 35 °F 24 °F -19 °F (1950)
Degree Days  
Heating Degree Days 26 37  
Month to date heating degree days 26 37  
Since 1 July heating degree days 4236 3758  
Moisture  
Dew Point 31 °F    
Average Humidity 67    
Maximum Humidity 85    
Minimum Humidity 49    
Precipitation  
Precipitation 0.34 in 0.17 in 1.38 in (2015)
Month to date precipitation 0.34 0.17  
Year to date precipitation 0.34 0.17  
Snow  
Snow 0.00 in 0.70 in 9.60 in (1980)
Month to date snowfall 0.0 0.7  
Since 1 July snowfall 43.7 30.2  
Snow Depth 0.00 in    
Sea Level Pressure  
Sea Level Pressure 29.98 in    
Wind  
Wind Speed 15 mph (ESE)    
Max Wind Speed 33 mph    
Max Gust Speed 40 mph    
Visibility 8 miles    
Events Rain    
T = Trace of Precipitation, MM = Missing Value Source: NWS Daily Summary

Daily Weather History Graph

Daily Weather History Graph

Search for Another Location

Airport or City:

Trip Planner

Search our weather history database for the weather conditions in past years. The results will help you decide how hot, cold, wet, or windy it might be!

Date:

Astronomy

Jan. 01, 2013 Rise Set
Actual Time 8:46 AM AKST 3:18 PM AKST
Civil Twilight 7:54 AM AKST 4:10 PM AKST
Nautical Twilight 7:01 AM AKST 5:03 PM AKST
Astronomical Twilight 6:12 AM AKST 5:51 PM AKST
Moon 9:08 PM AKST (1/1) 9:56 AM AKST (1/1)
Length of Visible Light 8h 15m
Length of Day
6h 32m
Waning Gibbous, 82% of the Moon is Illuminated
Jan 1
Waning Gibbous
Jan 4
Last Quarter
Jan 11
New
Jan 18
First Quarter
Jan 26
Full

Hourly Weather History & Observations

Time (AKST) Temp. Windchill Dew Point Humidity Pressure Visibility Wind Dir Wind Speed Gust Speed Precip Events Conditions
12:53 AM 39.0 °F 31.4 °F 33.1 °F 79% 30.26 in 10.0 mi East 12.7 mph - N/A   Overcast
1:53 AM 37.0 °F 28.9 °F 33.1 °F 86% 30.25 in 10.0 mi ESE 12.7 mph - N/A   Overcast
3:53 AM 37.0 °F 29.3 °F 32.0 °F 82% 30.24 in 10.0 mi East 11.5 mph - N/A   Overcast
4:53 AM 37.9 °F 31.5 °F 32.0 °F 79% 30.21 in 10.0 mi SE 9.2 mph - N/A   Overcast
5:53 AM 37.0 °F 29.3 °F 30.9 °F 79% 30.18 in 10.0 mi ESE 11.5 mph - N/A   Overcast
6:53 AM 37.9 °F 32.1 °F 30.9 °F 76% 30.13 in 10.0 mi East 8.1 mph - N/A   Overcast
7:53 AM 37.0 °F 31.6 °F 30.0 °F 76% 30.10 in 10.0 mi East 6.9 mph - N/A   Overcast
8:53 AM 37.0 °F 28.5 °F 30.9 °F 79% 30.06 in 10.0 mi SE 13.8 mph - N/A   Overcast
9:53 AM 37.9 °F 30.0 °F 30.0 °F 73% 30.04 in 10.0 mi East 12.7 mph - N/A   Overcast
10:53 AM 37.0 °F 32.4 °F 30.0 °F 76% 30.00 in 10.0 mi ENE 5.8 mph - N/A   Overcast
11:53 AM 37.9 °F 30.0 °F 28.9 °F 70% 29.96 in 10.0 mi East 12.7 mph - N/A   Overcast
12:53 PM 43.0 °F 36.4 °F 24.1 °F 47% 29.98 in 10.0 mi East 12.7 mph 20.7 mph N/A   Overcast
1:53 PM 39.9 °F 33.4 °F 27.0 °F 60% 29.91 in 10.0 mi East 10.4 mph - N/A   Overcast
2:53 PM 41.0 °F 33.9 °F 26.1 °F 55% 29.88 in 10.0 mi East 12.7 mph - N/A   Overcast
3:53 PM 39.0 °F 29.0 °F 30.0 °F 70% 29.90 in 7.0 mi SE 20.7 mph 32.2 mph 0.00 in Rain Light Rain
4:25 PM 37.0 °F 26.7 °F 32.0 °F 82% 29.89 in 6.0 mi East 19.6 mph 31.1 mph 0.02 in Rain Light Rain
4:53 PM 37.0 °F 26.7 °F 33.1 °F 86% 29.87 in 5.0 mi East 19.6 mph 28.8 mph 0.05 in Rain Light Rain
5:53 PM 37.9 °F 26.8 °F 34.0 °F 86% 29.85 in 10.0 mi ESE 24.2 mph 32.2 mph 0.03 in Rain Light Rain
6:53 PM 37.9 °F 26.3 °F 34.0 °F 86% 29.83 in 6.0 mi ESE 26.5 mph 36.8 mph 0.01 in Rain Light Rain
7:53 PM 37.9 °F 26.6 °F 34.0 °F 86% 29.81 in 7.0 mi ESE 25.3 mph 36.8 mph 0.02 in Rain Light Rain
8:35 PM 37.9 °F 26.6 °F 34.0 °F 86% 29.81 in 5.0 mi ESE 25.3 mph 35.7 mph 0.03 in Rain Light Rain
8:53 PM 37.0 °F 25.1 °F 34.0 °F 89% 29.82 in 5.0 mi ESE 26.5 mph - 0.05 in Rain Rain
9:53 PM 37.0 °F 26.7 °F 34.0 °F 89% 29.84 in 5.0 mi East 19.6 mph 28.8 mph 0.05 in Rain Light Rain
10:53 PM 37.0 °F 27.4 °F 34.0 °F 89% 29.85 in 5.0 mi ESE 17.3 mph 27.6 mph 0.08 in Rain Light Rain
11:53 PM 37.0 °F 28.1 °F 34.0 °F 89% 29.86 in 6.0 mi ESE 15.0 mph - 0.04 in Rain Light Rain